Flight Track Log - Related Links

Times and Time Zones

All times are in EDT time to prevent confusion due to time zone crossing. See the N789EX flight status page for this flight to view local times or setup timezone preferences in your user account.

Time Position Orientation Groundspeed Altitude Reporting Facility
EDT Latitude Longitude Course Direction KTS MPH feet Rate Location/Type
Tue 03:22:31 PM 47.4761 -119.8300 293° West 460 529 18,700  Level FlightAware ADS-B
Tue 03:23:00 PM 47.4147 -119.9185 295° West  Level FlightAware Approximate
Tue 03:23:04 PM 47.5031 -119.9240 293° West 467 537 19,800  Level FlightAware ADS-B
Tue 03:24:18 PM 47.5656 -120.1450 293° West 471 542 20,000 114 Climbing FlightAware ADS-B
Tue 03:24:49 PM 47.5911 -120.2360 293° West 470 541 20,000  Level FlightAware ADS-B
Tue 03:25:22 PM 47.6191 -120.3350 292° West 471 542 20,000  Level FlightAware ADS-B
Tue 03:25:52 PM 47.6408 -120.4130 292° West 457 526 20,000  Level FlightAware ADS-B
Tue 03:25:53 PM 47.6438 -120.4230 292° West 457 526 20,000  Level FlightAware ADS-B
Tue 03:26:22 PM 47.6646 -120.4987 292° West 456 525 20,000  Level FlightAware ADS-B
Tue 03:26:25 PM 47.6691 -120.5150 292° West 456 525 20,000  Level FlightAware ADS-B
Tue 03:26:55 PM 47.6933 -120.6030 292° West 458 527 20,000  Level FlightAware ADS-B
Tue 03:27:25 PM 47.7174 -120.6900 292° West 460 529 20,000  Level FlightAware ADS-B
Tue 03:27:29 PM 47.7194 -120.6978 292° West 460 529 20,000  Level FlightAware ADS-B
Tue 03:27:55 PM 47.7416 -120.7780 292° West 461 531 20,000  Level FlightAware ADS-B
Tue 03:28:13 PM 47.7527 -120.8184 292° West 463 533 20,000  Level FlightAware ADS-B
Tue 03:28:25 PM 47.7659 -120.8670 292° West 464 534 20,000  Level FlightAware ADS-B
Tue 03:28:48 PM 47.7834 -120.9309 292° West 464 534 20,000  Level FlightAware ADS-B
Tue 03:28:55 PM 47.7902 -120.9560 292° West 463 533 20,000 -1,263 Level FlightAware ADS-B
Tue 03:29:26 PM 47.8096 -121.0281 292° West 438 504 19,200 -2,459 Descending FlightAware ADS-B
Tue 03:29:56 PM 47.8358 -121.1240 292° West 429 494 17,500 -3,429 Descending FlightAware ADS-B
Tue 03:30:01 PM 47.8374 -121.1304 291° West 430 495 17,200 -4,200 Descending FlightAware ADS-B
Tue 03:30:06 PM 47.8423 -121.1504 288° West 431 496 16,800 -3,818 Descending FlightAware ADS-B
Tue 03:30:12 PM 47.8467 -121.1710 286° West 431 496 16,500 -3,143 Descending FlightAware ADS-B
Tue 03:30:27 PM 47.8539 -121.2140 282° West 427 491 15,700 -2,769 Descending FlightAware ADS-B
Tue 03:30:38 PM 47.8553 -121.2250 279° West 425 489 15,300 -2,857 Descending FlightAware ADS-B
Tue 03:31:09 PM 47.8638 -121.3330 276° West 420 483 13,700 -3,000 Descending FlightAware ADS-B
Tue 03:31:12 PM 47.8641 -121.3389 276° West 419 482 13,600 -3,000 Descending FlightAware ADS-B
Tue 03:31:39 PM 47.8688 -121.4190 274° West 409 471 12,200 -2,914 Descending FlightAware ADS-B
Tue 03:31:47 PM 47.8641 -121.3389 275° West 405 466 11,900 -1,600 Descending FlightAware ADS-B (CYVR)
Tue 03:32:09 PM 47.8737 -121.5010 276° West 389 448 11,400 -1,400 Descending FlightAware ADS-B
Tue 03:32:17 PM 47.8749 -121.5197 276° West 385 443 11,200 -1,200 Descending FlightAware ADS-B
Tue 03:32:39 PM 47.8788 -121.5800 275° West 369 425 10,800 -1,000 Descending FlightAware ADS-B
Tue 03:32:53 PM 47.8803 -121.6042 275° West 360 414 10,600 -968 Descending FlightAware ADS-B
Tue 03:33:10 PM 47.8834 -121.6560 275° West 349 402 10,300 -857 Descending FlightAware ADS-B
Tue 03:33:14 PM 47.8838 -121.6660 273° West 348 400 10,300 -750 Level FlightAware ADS-B
Tue 03:33:18 PM 47.8837 -121.6730 268° West 347 399 10,200 -1,200 Descending FlightAware ADS-B
Tue 03:33:24 PM 47.8824 -121.6870 259° West 347 399 10,100 -857 Descending FlightAware ADS-B
Tue 03:33:25 PM 47.8834 -121.6777 259° West 347 399 10,100 -857 Level FlightAware ADS-B
Tue 03:33:31 PM 47.8790 -121.7030 250° West 346 398 10,000 -667 Descending FlightAware ADS-B
Tue 03:33:34 PM 47.8763 -121.7110 242° Southwest 345 397 10,000  Level FlightAware ADS-B
Tue 03:33:35 PM 47.8772 -121.7086 244° Southwest 345 397 10,000 -667 Level FlightAware ADS-B
Tue 03:33:43 PM 47.8680 -121.7280 230° Southwest 341 392 9,900 -500 Descending FlightAware ADS-B
Tue 03:33:47 PM 47.8633 -121.7350 224° Southwest 336 387 9,900  Level FlightAware ADS-B
Tue 03:33:49 PM 47.8622 -121.7368 223° Southwest 335 386 9,900 375 Level FlightAware ADS-B
Tue 03:34:03 PM 47.8461 -121.7590 223° Southwest 318 366 10,000 316 Climbing FlightAware ADS-B
Tue 03:34:08 PM 47.8456 -121.7594 223° Southwest 311 358 10,000  Level FlightAware ADS-B
Tue 03:34:17 PM 47.8320 -121.7780 222° Southwest 303 349 10,000 -857 Level FlightAware ADS-B
Tue 03:34:29 PM 47.8200 -121.7941 222° Southwest 299 344 9,700 -1,600 Descending FlightAware ADS-B
Tue 03:34:32 PM 47.8162 -121.7990 222° Southwest 300 345 9,600 -1,333 Descending FlightAware ADS-B
Tue 03:34:47 PM 47.8006 -121.8200 222° Southwest 295 339 9,300 -947 Descending FlightAware ADS-B
Tue 03:34:51 PM 47.7986 -121.8227 222° Southwest 293 337 9,300 -800 Level FlightAware ADS-B
Tue 03:35:02 PM 47.7854 -121.8410 222° Southwest 290 334 9,100 -1,250 Descending FlightAware ADS-B
Tue 03:35:15 PM 47.7752 -121.8544 223° Southwest 287 330 8,800 -1,200 Descending FlightAware ADS-B
Tue 03:35:17 PM 47.7706 -121.8610 223° Southwest 287 330 8,800 -1,286 Level FlightAware ADS-B
Tue 03:35:29 PM 47.7595 -121.8760 224° Southwest 284 327 8,500 -1,286 Descending FlightAware ADS-B
Tue 03:35:31 PM 47.7762 -121.8531 224° Southwest 284 327 8,500 -2,000 Level FlightAware ADS-B (CYVR)
Tue 03:35:32 PM 47.7564 -121.8810 227° Southwest 282 325 8,400 -1,200 Descending FlightAware ADS-B
Tue 03:35:36 PM 47.7536 -121.8860 231° Southwest 279 321 8,400 -857 Level FlightAware ADS-B
Tue 03:35:39 PM 47.7509 -121.8920 236° Southwest 275 316 8,300 -3,000 Descending FlightAware ADS-B
Tue 03:35:40 PM 47.7507 -121.8923 240° Southwest 274 315 8,200 -2,000 Descending FlightAware ADS-B
Tue 03:35:45 PM 47.7479 -121.9020 248° West 270 311 8,100 -1,800 Descending FlightAware ADS-B
Tue 03:35:50 PM 47.7465 -121.9100 259° West 267 307 7,900 -1,714 Descending FlightAware ADS-B
Tue 03:35:52 PM 47.7467 -121.9090 259° West 267 307 7,900 -3,000 Level FlightAware ADS-B
Tue 03:35:54 PM 47.7460 -121.9170 265° West 265 305 7,700 -3,429 Descending FlightAware ADS-B
Tue 03:35:59 PM 47.7459 -121.9260 270° West 265 305 7,500 -1,500 Descending FlightAware ADS-B
Tue 03:36:02 PM 47.7459 -121.9297 271° West 265 305 7,500 -2,000 Level FlightAware ADS-B
Tue 03:36:14 PM 47.7466 -121.9540 273° West 267 307 7,000 -2,400 Descending FlightAware ADS-B
Tue 03:36:17 PM 47.7467 -121.9582 273° West 266 306 6,900 -1,600 Descending FlightAware ADS-B
Tue 03:36:29 PM 47.7475 -121.9800 274° West 264 304 6,600 -1,500 Descending FlightAware ADS-B
Tue 03:36:33 PM 47.7476 -121.9818 276° West 262 302 6,500 -2,000 Descending FlightAware ADS-B
Tue 03:36:38 PM 47.7490 -121.9960 280° West 260 299 6,300 -1,846 Descending FlightAware ADS-B
Tue 03:36:46 PM 47.7511 -122.0110 283° West 257 296 6,100 -1,600 Descending FlightAware ADS-B
Tue 03:36:53 PM 47.7527 -122.0212 283° West 256 295 5,900 -1,600 Descending FlightAware ADS-B
Tue 03:37:01 PM 47.7552 -122.0360 284° West 255 293 5,700 -1,304 Descending FlightAware ADS-B
Tue 03:37:16 PM 47.7596 -122.0620 285° West 250 288 5,400 -1,250 Descending FlightAware ADS-B
Tue 03:37:25 PM 47.7615 -122.0722 285° West 248 285 5,200 -1,600 Descending FlightAware ADS-B
Tue 03:37:31 PM 47.7639 -122.0860 285° West 247 284 5,000 -1,579 Descending FlightAware ADS-B
Tue 03:37:44 PM 47.7675 -122.1070 284° West 244 281 4,700 -1,286 Descending FlightAware ADS-B
Tue 03:37:45 PM 47.7676 -122.1075 284° West 244 281 4,700 -1,333 Level FlightAware ADS-B
Tue 03:37:53 PM 47.7701 -122.1220 283° West 243 280 4,500 -1,500 Descending FlightAware ADS-B
Tue 03:37:57 PM 47.7709 -122.1290 279° West 243 280 4,400 -1,714 Descending FlightAware ADS-B
Tue 03:38:00 PM 47.7713 -122.1340 277° West 243 280 4,300 -2,000 Descending FlightAware ADS-B
Tue 03:38:03 PM 47.7695 -122.1185 276° West 244 281 4,200 -1,500 Descending FlightAware ADS-B
Tue 03:38:08 PM 47.7722 -122.1480 275° West 244 281 4,100 -1,579 Descending FlightAware ADS-B
Tue 03:38:22 PM 47.7734 -122.1700 275° West 246 283 3,700 -1,929 Descending FlightAware ADS-B
Tue 03:38:36 PM 47.7750 -122.1930 277° West 248 285 3,200 -2,000 Descending FlightAware ADS-B
Tue 03:38:40 PM 47.7756 -122.2000 276° West 248 285 3,100 -1,429 Descending FlightAware ADS-B
Tue 03:38:57 PM 47.7780 -122.2281 278° West 248 285 2,700 -1,167 Descending FlightAware ADS-B
Tue 03:39:16 PM 47.7811 -122.2600 277° West 248 285 2,400 -667 Descending FlightAware ADS-B
Tue 03:39:33 PM 47.7837 -122.2870 277° West 248 285 2,300 -364 Descending FlightAware ADS-B
Tue 03:39:49 PM 47.7854 -122.3055 278° West 214 246 2,200 -514 Descending FlightAware ADS-B
Tue 03:40:08 PM 47.7884 -122.3372 278° West 209 241 2,000 -300 Descending FlightAware ADS-B
Tue 03:40:29 PM 47.7910 -122.3671 272° West 216 249 2,000  Level FlightAware ADS-B
Tue 03:40:59 PM 47.7810 -122.4062 241° Southwest 188 216 2,000  Level FlightAware ADS-B
Tue 03:43:33 PM 47.6762 -122.4266 150° Southeast 172 198 2,000  Level FlightAware ADS-B
Tue 03:43:53 PM 47.6729 -122.4238 151° Southeast 151 174 2,000  Level FlightAware ADS-B
Tue 03:44:02 PM 47.6580 -122.4110 150° Southeast 149 171 2,000  Level FlightAware ADS-B
Tue 03:44:13 PM 47.6514 -122.4056 150° Southeast 146 168 2,000  Level FlightAware ADS-B
Tue 03:44:18 PM 47.6483 -122.4030 149° Southeast 145 167 2,000  Level FlightAware ADS-B
Tue 03:44:29 PM 47.6419 -122.3970 147° Southeast 145 167 2,000  Level FlightAware ADS-B
Tue 03:44:39 PM 47.6362 -122.3920 150° Southeast 144 166 2,000 -316 Level FlightAware ADS-B
Tue 03:44:48 PM 47.6316 -122.3877 151° Southeast 138 159 1,900 -500 Descending FlightAware ADS-B
Tue 03:44:51 PM 47.6297 -122.3860 151° Southeast 137 158 1,900 -600 Level FlightAware ADS-B
Tue 03:45:08 PM 47.6206 -122.3790 151° Southeast 135 155 1,700 -667 Descending FlightAware ADS-B
Tue 03:45:27 PM 47.6108 -122.3710 151° Southeast 134 154 1,500 -600 Descending FlightAware ADS-B
Tue 03:45:28 PM 47.6097 -122.3698 150° Southeast 132 152 1,500 -857 Level FlightAware ADS-B
Tue 03:45:34 PM 47.6068 -122.3670 149° Southeast 131 151 1,400 -938 Descending FlightAware ADS-B
Tue 03:46:00 PM 47.5932 -122.3558 151° Southeast 133 153 1,000 -500 Descending FlightAware ADS-B
Tue 03:46:34 PM 47.5772 -122.3425 151° Southeast 135 155 900 -448 Descending Seattle Center
Tue 03:47:07 PM 47.5575 -122.3281 154° Southeast 131 151 500 -689 Descending Seattle Center
Tue 03:47:35 PM 47.5456 -122.3153 144° Southeast 133 153 200 -643 Descending Seattle Center

Login

Don't have an account? Register now (free) for customized features, flight alerts, and more!